Darstellungsparameter: Aktuell verwendete Einstellungen:
Skalierung der Graphiken ... ?
xyx+y,   Skalierungsfaktor:      Skalierung: Modus: x, Faktor: 1
Darstellungszeitraum ... ?
Vom - - bis: - -   Zeitraum: 12.05.2021 - 12.05.2021
Min/Max/Avg-Anzeige ... ?
Zeige MMA aktuell
Zeige MMA Monat
Zeige MMA alles
Zeige --A aktuell
Zeige --A Monat
Zeige --A alles
Keine MMA-Anzeige
MMA:
Average (ber die Originaldaten)
MMA-Basis: 14.07.2014 - 16.08.2014
Quicknavigation für Darstellung... ?
Tage:      1T, 2T, 3T, 5T -1T -2T -3T -5T +1T +2T +3T +5T
Wochen: 1W, 2W, 3W -1W -2W -3W +1W +2W +3W
Monate: 1M, 3M, 6M -1M -3M -6M +1M +3M +6M
Jahre:    1J, 3J, 5J, 10J -1J -3J -5J -10J +1J +3J +5J +10J
Nutze für die Darstellung ... ?
Originaldaten oder Mittelwerte auf ...
Stundenbasis Tagesbasis Wochenbasis
Monatsbasis Jahresbasis      Datenbasis: Original-Daten
Darstellen als:
Statistik (Auto) Statistik J:M      Darstellung:

Der gewünschte Datumsbereich war nicht gültig/verfügbar und wurde korrigiert....
Das angegebene Enddatum (15.08.2024 23:59:59) liegt in der Zukunft.
Das angegebene Startdatum (16.02.2024 00:00:00) liegt in der Zukunft.


Zur Graphik,    zurück zur Übersicht aller Sensoren.
 
Tabellarische Datenbersicht: ?
 
Sensor: Nr:Datum:Temp:Feuchte:Taupunkt:
Aussen-T/F 1 12-05-2021 02:00:00 11.6 C 96 % 10.98 C
2 12-05-2021 02:05:00 11.6 C 96 % 10.98 C
3 12-05-2021 02:10:00 11.6 C 96 % 10.98 C
4 12-05-2021 02:15:00 11.5 C 96 % 10.88 C
5 12-05-2021 02:20:00 11.5 C 96 % 10.88 C
6 12-05-2021 02:25:00 11.4 C 96 % 10.79 C
7 12-05-2021 02:30:00 11.4 C 96 % 10.79 C
8 12-05-2021 02:35:00 11.3 C 96 % 10.69 C
9 12-05-2021 02:40:00 11.3 C 96 % 10.69 C
10 12-05-2021 02:45:00 11.3 C 96 % 10.69 C
11 12-05-2021 02:50:00 11.2 C 96 % 10.59 C
12 12-05-2021 02:55:00 11.2 C 96 % 10.59 C
13 12-05-2021 03:00:00 11.1 C 96 % 10.49 C
14 12-05-2021 03:05:00 11.1 C 96 % 10.49 C
15 12-05-2021 03:10:00 11.1 C 96 % 10.49 C
16 12-05-2021 03:15:00 11 C 96 % 10.39 C
17 12-05-2021 03:20:00 11 C 96 % 10.39 C
18 12-05-2021 03:25:00 10.9 C 96 % 10.29 C
19 12-05-2021 03:30:00 10.9 C 96 % 10.29 C
20 12-05-2021 03:35:00 10.9 C 96 % 10.29 C
21 12-05-2021 03:40:00 10.9 C 96 % 10.29 C
22 12-05-2021 03:45:00 11 C 96 % 10.39 C
23 12-05-2021 03:50:00 11.1 C 96 % 10.49 C
24 12-05-2021 03:55:00 11.1 C 96 % 10.49 C
25 12-05-2021 04:00:00 11.1 C 96 % 10.49 C
Sensor: Nr:Datum:Temp:Feuchte:Taupunkt:
Aussen-T/F 26 12-05-2021 04:05:00 11.2 C 96 % 10.59 C
27 12-05-2021 04:10:00 11.2 C 96 % 10.59 C
28 12-05-2021 04:15:00 11.1 C 96 % 10.49 C
29 12-05-2021 04:20:00 11.1 C 96 % 10.49 C
30 12-05-2021 04:25:00 11.1 C 96 % 10.49 C
31 12-05-2021 04:30:00 11.1 C 96 % 10.49 C
32 12-05-2021 04:35:00 11.1 C 96 % 10.49 C
33 12-05-2021 04:40:00 11.1 C 96 % 10.49 C
34 12-05-2021 04:45:00 11 C 96 % 10.39 C
35 12-05-2021 04:50:00 11.1 C 96 % 10.49 C
36 12-05-2021 04:55:00 11.1 C 96 % 10.49 C
37 12-05-2021 05:00:00 11.1 C 96 % 10.49 C
38 12-05-2021 05:05:00 11.1 C 96 % 10.49 C
39 12-05-2021 05:10:00 11.1 C 96 % 10.49 C
40 12-05-2021 05:15:00 11.1 C 96 % 10.49 C
41 12-05-2021 05:20:00 11.1 C 96 % 10.49 C
42 12-05-2021 05:25:00 11.1 C 96 % 10.49 C
43 12-05-2021 05:30:00 11.1 C 96 % 10.49 C
44 12-05-2021 05:35:00 11.1 C 96 % 10.49 C
45 12-05-2021 05:40:00 11.1 C 96 % 10.49 C
46 12-05-2021 05:45:00 11.1 C 96 % 10.49 C
47 12-05-2021 05:50:00 11.1 C 96 % 10.49 C
48 12-05-2021 05:55:00 11.1 C 96 % 10.49 C
49 12-05-2021 06:00:00 11 C 96 % 10.39 C
50 12-05-2021 06:05:00 11 C 96 % 10.39 C
Sensor: Nr:Datum:Temp:Feuchte:Taupunkt:
Aussen-T/F 51 12-05-2021 06:10:00 11 C 96 % 10.39 C
52 12-05-2021 06:15:00 11 C 96 % 10.39 C
53 12-05-2021 06:20:00 11 C 96 % 10.39 C
54 12-05-2021 06:25:00 11 C 96 % 10.39 C
55 12-05-2021 06:30:00 11 C 96 % 10.39 C
56 12-05-2021 06:35:00 11 C 96 % 10.39 C
57 12-05-2021 06:40:00 11 C 96 % 10.39 C
58 12-05-2021 06:45:00 11 C 96 % 10.39 C
59 12-05-2021 06:50:00 11 C 96 % 10.39 C
60 12-05-2021 06:55:00 11.1 C 96 % 10.49 C
61 12-05-2021 07:00:00 11.1 C 96 % 10.49 C
62 12-05-2021 07:05:00 11.1 C 95 % 10.33 C
63 12-05-2021 07:10:00 11.1 C 95 % 10.33 C
64 12-05-2021 07:15:00 11.1 C 95 % 10.33 C
65 12-05-2021 07:20:00 11.1 C 95 % 10.33 C
66 12-05-2021 07:25:00 11.1 C 95 % 10.33 C
67 12-05-2021 07:30:00 11 C 95 % 10.23 C
68 12-05-2021 07:35:00 11 C 95 % 10.23 C
69 12-05-2021 07:40:00 11 C 95 % 10.23 C
70 12-05-2021 07:45:00 11.1 C 95 % 10.33 C
71 12-05-2021 07:50:00 11.1 C 95 % 10.33 C
72 12-05-2021 07:55:00 11.3 C 96 % 10.69 C
73 12-05-2021 08:00:00 11.3 C 95 % 10.53 C
74 12-05-2021 08:05:00 11.4 C 95 % 10.63 C
75 12-05-2021 08:10:00 11.6 C 95 % 10.83 C
Sensor: Nr:Datum:Temp:Feuchte:Taupunkt:
Aussen-T/F 76 12-05-2021 08:15:00 11.7 C 95 % 10.93 C
77 12-05-2021 08:20:00 11.8 C 94 % 10.87 C
78 12-05-2021 08:25:00 11.9 C 94 % 10.97 C
79 12-05-2021 08:30:00 12 C 94 % 11.07 C
80 12-05-2021 08:35:00 12.1 C 93 % 11 C
81 12-05-2021 08:40:00 12.2 C 93 % 11.1 C
82 12-05-2021 08:45:00 12.3 C 93 % 11.2 C
83 12-05-2021 08:50:00 12.4 C 93 % 11.3 C
84 12-05-2021 08:55:00 12.4 C 92 % 11.14 C
85 12-05-2021 09:00:00 12.6 C 92 % 11.34 C
86 12-05-2021 09:05:00 12.7 C 92 % 11.43 C
87 12-05-2021 09:10:00 12.7 C 91 % 11.27 C
88 12-05-2021 09:15:00 12.7 C 90 % 11.1 C
89 12-05-2021 09:20:00 12.8 C 90 % 11.2 C
90 12-05-2021 09:25:00 12.9 C 89 % 11.13 C
91 12-05-2021 09:30:00 13 C 89 % 11.23 C
92 12-05-2021 09:35:00 13.2 C 89 % 11.43 C
93 12-05-2021 09:40:00 13.3 C 89 % 11.53 C
94 12-05-2021 09:45:00 13.4 C 89 % 11.63 C
95 12-05-2021 09:50:00 13.6 C 88 % 11.65 C
96 12-05-2021 09:55:00 13.6 C 87 % 11.48 C
97 12-05-2021 10:00:00 13.7 C 87 % 11.58 C

Legende:
   Min
   Max


Maximal/Minimal-Werte vom 14.07.2014 - 16.08.2014

Sensor Min Max Avg
Temp
(Aussen-T/F)
12.6 °C
06-08-2014  06:00:00
34.9 °C
19-07-2014  15:55:00
19.97 °C
Feuchte
(Aussen-T/F)
32 %
18-07-2014  16:55:00
100 %
14-07-2014  03:35:00
81.53 %

Die Daten stammen von einer Davis Vantage Pro 2 Wetter-Station und werden unter Linux mit der Software wview2wettercgi und aufbereitet. Alle Angaben erfolgen ohne Gewähr für ihre Vollständigkeit oder Richtigkeit.
Kontakt: Rainer Krienke krienke@uni-koblenz.de . Meine Webseiten an der Uni Koblenz oder privat.
Version: $Revision: 0.78 $